Location: Chamberlain Observatory
(39.0028°N, 90.1630°W)
Time: 15:45:25
(UTC-06:00)

Daily predictions for brighter satellites

Satellite Brightness Start Highest point End
(mag) Time Altitude Azimuth Time Altitude Azimuth Time Altitude Azimuth
Cosmos 158 Rocket 4.3 16:58:11 10° N 17:03:22 47° ENE 17:08:25 10° SE
Cosmos 1844 Rocket 3.0 16:58:11 10° S 17:03:29 46° ESE 17:08:50 10° NE
Cosmos 1975 Rocket 3.1 17:01:01 10° S 17:05:14 56° E 17:09:28 10° NNE
Meteor 1-27 Rocket 4.3 16:59:42 10° SSW 17:05:32 67° W 17:11:18 10° N
Cosmos 1048 Rocket 4.0 17:01:33 10° NNW 17:06:53 75° ENE 17:12:13 10° SSE
CZ-2C R/B 2.7 17:02:42 10° SE 17:07:24 47° ENE 17:12:16 10° N
Cosmos 1238 Rocket 3.7 17:08:40 10° SE 17:10:46 18° E 17:12:51 10° NE
CZ-2C R/B 4.4 17:08:09 10° N 17:12:30 55° WNW 17:16:51 10° SSW
CZ-3A R/B 3.3 17:09:24 10° WSW 17:13:20 59° NNW 17:31:54 10° NE
Cosmos 1844 4.1 17:08:34 10° S 17:13:45 41° ESE 17:18:56 10° NE
BREEZE-M DEB (TANK) 2.9 17:14:11 10° W 17:16:25 29° NNW 17:18:24 10° NE
Cosmos 1975 4.4 17:14:27 10° NNE 17:17:00 16° ENE 17:19:31 10° ESE
CRYOSAT 2 4.4 17:12:39 10° NNE 17:17:30 59° E 17:22:19 10° S
AQUARIUS 4.2 17:14:57 10° SSE 17:19:22 60° ENE 17:23:49 10° N
MOS 1 4.3 17:14:24 10° SSE 17:20:02 70° ENE 17:25:40 10° N
CORIOLIS 4.2 17:17:10 10° SSE 17:22:29 60° ENE 17:27:48 10° N
SPOT 3 Rocket 3.5 17:20:46 10° SSE 17:25:57 76° ENE 17:31:09 10° N
PAYLOAD A 4.2 17:21:34 10° S 17:26:18 73° WSW 17:31:14 10° NNW
SMAP 3.0 17:23:11 10° SSE 17:27:49 75° ENE 17:32:28 10° N
YAOGAN 1 2.5 17:24:57 10° SSE 17:29:16 71° ENE 17:33:35 10° N
Cosmos 2278 Rocket 2.8 17:26:28 10° SSE 17:31:32 35° ESE 17:36:35 10° NE
COSMOS 2406 3.3 17:28:38 10° NNW 17:34:23 87° WSW 17:40:07 10° SSE
SL-8 Rocket 3.9 17:29:12 10° N 17:35:23 74° E 17:41:30 10° SSE
ASTRO F (AKARI) 4.2 17:34:07 10° NNE 17:37:14 60° E 17:40:20 10° S
IDEFIX/ARIANE 42P 2.7 17:37:03 10° S 17:42:16 82° WSW 17:47:29 10° NNW
USA 32 4.0 17:37:21 10° S 17:42:34 85° E 17:47:48 10° N
Meteor 1-5 Rocket 4.4 17:39:24 10° NNW 17:44:49 76° W 17:50:22 10° S
Cosmos 2366 rocket 4.0 17:39:09 10° N 17:45:28 65° E 17:51:43 10° SSE
Cosmos 1484 Rocket 3.0 17:42:44 10° SE 17:46:19 42° ENE 17:49:53 10° N
Cosmos 2218 Rocket 3.9 17:41:00 10° N 17:47:19 77° E 17:53:31 10° S
OTV 4 1.6 17:44:32 10° W 17:47:22 39° SSW 17:49:39 14° SE
CZ-3B DEB 2.0 17:44:32 10° SW 17:47:56 87° NW 17:55:17 14° NE
Meteor 2-19 Rocket 4.4 17:43:15 10° N 17:49:21 85° E 17:55:23 10° S
SKYMED 2 3.7 17:46:54 10° NNE 17:51:08 51° E 17:55:22 10° S
Cosmos 1959 Rocket 4.4 17:45:11 10° N 17:51:23 83° E 17:57:38 10° S
USA 234 4.2 17:45:45 10° NE 17:51:41 38° NNW 17:57:36 10° W
Cosmos 1455 Rocket 3.0 17:48:46 10° N 17:53:09 67° E 17:57:32 10° SSE
Cosmos 2082 Rocket 3.3 17:53:17 10° N 17:57:32 21° NE 17:57:45 21° ENE
Cosmos 1833 Rocket 4.0 17:59:24 10° N 18:02:46 20° NE 18:02:46 20° NE
BREEZE-M DEB (TANK) 4.5 17:58:25 10° WNW 18:03:50 42° SW 18:07:17 10° SSE
NOSS 3-3 (A) 4.0 17:59:03 10° SSW 18:05:06 65° ESE 18:09:41 20° NE
NOSS 3-3 (C) 4.0 17:59:10 10° SSW 18:05:12 65° ESE 18:09:45 20° NE
SL-8 R/B 3.7 18:02:07 10° SW 18:06:52 72° SE 18:09:02 32° ENE
Cosmos 494 Rocket 3.9 18:02:19 10° NNW 18:07:35 75° ENE 18:12:49 10° SSE
Okean 1 3.2 18:06:49 10° S 18:10:50 85° E 18:14:31 13° N
Cosmos 1809 Rocket 4.5 18:04:48 10° N 18:10:52 57° E 18:16:52 10° SSE
Cosmos 1500 3.2 18:08:40 10° N 18:12:24 53° E 18:16:10 10° SSE
ATLAS 2AS CENTAUR R/B 3.0 18:07:14 10° NNW 18:15:22 87° ENE 18:22:52 10° SSE
NOAA 12 4.2 18:10:31 10° SE 18:15:35 48° ENE 18:20:38 10° N
Meteor 1-28 Rocket 3.2 18:15:04 43° NE 18:15:56 55° E 18:19:40 10° S
METEOR-M 4.4 18:11:25 10° SE 18:16:23 41° ENE 18:21:23 10° N
Cosmos 1821 Rocket 4.4 18:15:16 10° N 18:20:53 37° ENE 18:26:26 10° SE
Cosmos 2251 Rocket 3.8 18:15:49 10° NNW 18:21:10 71° WSW 18:26:26 10° S
ISS -1.5 18:18:31 10° W 18:21:14 23° NNW 18:21:49 22° N
SL-27 R/B 4.4 18:26:37 10° NW 18:29:55 32° WSW 18:33:10 10° SSW
Cosmos 1812 4.3 18:27:46 10° SW 18:31:18 34° WNW 18:34:52 10° NNW
Cosmos 1346 Rocket 2.7 18:27:52 10° S 18:31:47 85° W 18:32:45 50° N
Tiangong 1 3.1 18:32:45 10° SW 18:34:09 21° SSW 18:34:09 21° SSW
COSMO-SKYMED 1 3.6 18:35:01 10° N 18:39:08 44° WNW 18:43:15 10° SW
Nadezhda 3 Rocket 3.9 18:34:13 10° S 18:40:23 90° NNW 18:46:40 10° N
Meteor 2-21 4.5 18:35:54 10° N 18:42:06 83° W 18:48:14 10° S
GEOS 3 Rocket 3.9 18:40:25 10° SSE 18:45:29 65° WSW 18:50:35 10° NW
SL-24 R/B - RUBIN 2 4.4 18:40:37 10° SSW 18:46:48 77° ESE 18:48:47 48° NE
ATLAS 3B CENTAUR R/B 3.8 18:42:16 10° WSW 18:57:16 42° S 19:00:10 30° SE
Cosmos 2297 3.6 18:53:04 10° SSW 18:58:43 89° WNW 18:59:27 69° NNE
BREEZE-M R/B 4.2 18:58:42 10° WSW 19:07:25 50° NNW 19:08:02 48° N
Meteor 1-19 Rocket 4.4 19:04:35 10° SSW 19:10:19 71° W 19:12:12 44° N
Cosmos 2278 Rocket 3.7 19:10:36 10° WSW 19:15:35 31° WNW 19:18:28 20° NNW
FALCON 9 R/B 3.0 19:08:56 10° WSW 19:25:59 64° S 19:26:28 63° SSE
Cosmos 2082 Rocket 3.5 19:36:27 10° NNW 19:39:41 34° NW 19:39:41 34° NW
Cosmos 1833 Rocket 4.5 19:42:19 10° NNW 19:44:32 24° NW 19:44:32 24° NW
BREEZE M DEB (TANK) 4.4 19:47:24 10° NW 19:50:35 51° NW 19:50:35 51° NW
